Tracking 20041 objects as of 22-Nov-2019
Live streaming from Space Station
objects crossing your sky now

COSMOS 528

Track COSMOS 528 now!
10-day predictions
COSMOS 528 is classified as:


NORAD ID: 6262
Int'l Code: 1972-087A
Perigee: 1,372.6 km
Apogee: 1,474.7 km
Inclination: 74.0 °
Period: 114.1 minutes
Semi major axis: 7794 km
RCS: 0.7007 m2 (medium)
Launch date: November 1, 1972
Source: Commonwealth of Independent States (former USSR) (CIS)
Launch site: PLESETSK MISSILE AND SPACE COMPLEX (PKMTR)
aabbcc
Your satellite tracking list
Your tracking list is empty




NASA's NSSDC Master Catalog

Two Line Element Set (TLE):
1  6262U 72087A   19325.95265694 -.00000001 +00000-0 +86436-4 0  9999
2  6262 074.0321 157.8093 0065504 334.8532 189.9936 12.61567251167203
Source of the keplerian elements: AFSPC